Stations météo

réclame
Mon MeteoGroup
Annecy-Meythet, France (7490): Température de l'air & dewpoint: 17.04.2018 04:00:00 - 23.04.2018 04:00:00 (CEST)Annecy-Meythet, France (7490): Température de l'air 5cm: 17.04.2018 04:00:00 - 23.04.2018 04:00:00 (CEST)Annecy-Meythet, France (7490): Température de l'air -20cm & Température de l'air -100cm: 17.04.2018 04:00:00 - 23.04.2018 04:00:00 (CEST)Annecy-Meythet, France (7490): Vitesse du vent & gusts: 17.04.2018 04:00:00 - 23.04.2018 04:00:00 (CEST)Annecy-Meythet, France (7490): Direction du vent: 17.04.2018 04:00:00 - 23.04.2018 04:00:00 (CEST)Annecy-Meythet, France (7490): reduced air pressure: 17.04.2018 04:00:00 - 23.04.2018 04:00:00 (CEST)Annecy-Meythet, France (7490): visibility: 17.04.2018 04:00:00 - 23.04.2018 04:00:00 (CEST)Annecy-Meythet, France (7490): Quantités de précipitations: 17.04.2018 04:00:00 - 23.04.2018 04:00:00 (CEST)
Date & Time tt [°C] td [°C] tt 5cm [°C] tt -20cm [°C] tt -100cm [°C] ff [km/h] ff [knt] fx [km/h] fx [knt] dd ppp [hPa] vv [km] rr [mm]
23.04.2018 04:00:00 - - - - - - - - - - - - -
23.04.2018 03:00:00 13,2 8,5 11,5 15,7 9,6 4 2 18 10 N 1019,0 52 0,0
23.04.2018 02:00:00 12,7 8,8 10,7 16,0 9,6 8 5 13 7 NE 1019,1 57 0,0
23.04.2018 01:00:00 13,6 8,2 11,0 16,3 9,6 0 0 11 6 N 1018,6 60 0,0
23.04.2018 00:00:00 14,5 8,2 11,7 16,7 9,5 6 3 18 10 NNE 1017,9 59 0,0
22.04.2018 23:00:00 15,1 8,1 12,0 17,0 9,5 7 4 15 8 ENE 1017,6 54 0,0
22.04.2018 22:00:00 16,2 9,6 13,2 17,3 9,5 3 2 20 11 ENE 1017,0 60 0,0
22.04.2018 21:00:00 21,1 5,8 14,7 17,6 9,5 13 7 25 14 WSW 1015,2 60 0,0
22.04.2018 20:00:00 23,0 7,9 19,1 17,7 9,5 6 3 22 12 W 1014,1 60 0,0
22.04.2018 19:00:00 24,9 9,2 26,2 17,7 9,5 11 6 26 14 WSW 1013,3 20 0,0
22.04.2018 18:00:00 25,7 9,1 27,7 17,6 9,5 13 7 23 13 W 1013,1 56 0,0
22.04.2018 17:00:00 25,6 9,4 28,1 17,4 9,5 16 9 27 15 WSW 1013,5 60 0,0
22.04.2018 16:00:00 25,3 11,5 28,5 17,1 9,5 11 6 24 13 SW 1013,9 60 0,0
22.04.2018 15:00:00 25,3 9,6 29,3 16,5 9,5 13 7 24 13 W 1014,6 52 0,0
22.04.2018 14:00:00 24,2 10,5 28,8 15,7 9,4 8 4 21 11 SSW 1015,2 40 0,0
22.04.2018 13:00:00 23,3 9,7 27,7 15,0 9,4 10 6 19 10 SW 1015,9 54 0,0
22.04.2018 12:00:00 21,8 9,3 27,7 14,3 9,4 6 3 19 10 SW 1016,8 51 0,0
22.04.2018 11:00:00 21,6 8,5 24,7 13,9 9,4 0 0 10 6 N 1017,3 55 0,0
22.04.2018 10:00:00 18,6 7,7 21,7 13,7 9,4 3 2 10 5 NE 1018,0 60 0,0
22.04.2018 09:00:00 16,7 8,4 16,3 13,6 9,4 5 3 11 6 E 1018,4 56 0,0
22.04.2018 08:00:00 12,4 8,3 8,7 13,8 9,4 8 5 16 9 NE 1019,2 45 0,0
22.04.2018 07:00:00 9,3 7,2 8,5 14,1 9,4 13 7 19 11 NE 1019,5 39 0,0
22.04.2018 06:00:00 9,7 7,0 8,6 14,4 9,3 11 6 26 14 NE 1019,1 45 0,0
22.04.2018 05:00:00 10,8 7,3 8,9 14,7 9,3 15 8 21 12 NE 1019,2 48 0,0
22.04.2018 04:00:00 12,3 7,0 10,1 15,1 9,3 10 5 20 11 NNE 1019,0 59 0,0
22.04.2018 03:00:00 12,7 7,2 10,5 15,4 9,3 11 6 16 9 NNE 1019,0 60 0,0
22.04.2018 02:00:00 12,4 7,9 10,2 15,7 9,3 10 5 14 8 NNE 1019,5 52 0,0
22.04.2018 01:00:00 13,1 8,2 11,0 16,1 9,3 10 5 15 8 NE 1019,4 51 0,0
22.04.2018 00:00:00 14,5 8,4 11,7 16,4 9,3 9 5 14 8 NNE 1018,8 53 0,0
21.04.2018 23:00:00 15,3 8,5 12,3 16,7 9,2 8 5 13 7 N 1018,2 56 0,0
21.04.2018 22:00:00 17,2 9,1 13,1 17,1 9,3 6 4 12 7 NE 1017,5 49 0,0
21.04.2018 21:00:00 19,3 8,0 14,2 17,3 9,2 3 2 14 8 NE 1016,3 20 0,0
21.04.2018 20:00:00 25,1 5,3 22,5 17,3 9,2 6 3 13 7 NW 1014,8 29 0,0
21.04.2018 19:00:00 27,0 6,4 29,0 17,3 9,2 7 4 16 9 NNW 1014,5 56 0,0
21.04.2018 18:00:00 27,4 6,2 30,1 17,3 9,2 9 5 19 11 WNW 1014,8 54 0,0
21.04.2018 17:00:00 27,2 4,3 30,3 17,2 9,2 12 6 22 12 WNW 1015,3 44 0,0
21.04.2018 16:00:00 27,4 8,3 31,9 16,8 9,2 7 4 18 10 W 1015,8 55 0,0
21.04.2018 15:00:00 26,9 9,7 31,1 16,1 9,2 4 2 15 8 WSW 1016,6 58 0,0
21.04.2018 14:00:00 26,1 7,6 30,0 15,2 9,1 3 2 10 6 NNW 1017,5 53 0,0
21.04.2018 13:00:00 23,9 8,3 29,4 14,4 9,2 5 3 11 6 SSE 1018,6 57 0,0
21.04.2018 12:00:00 22,5 7,8 26,6 13,7 9,1 3 1 8 5 S 1019,8 18 0,0
21.04.2018 11:00:00 20,3 6,6 22,8 13,2 9,1 2 1 8 4 SSE 1020,9 48 0,0
21.04.2018 10:00:00 17,6 5,5 20,6 13,0 9,1 4 2 14 8 ESE 1021,4 59 0,0
21.04.2018 09:00:00 15,5 6,2 14,4 13,0 9,1 5 3 13 7 ENE 1022,0 51 0,0
21.04.2018 08:00:00 11,1 7,6 7,0 13,3 9,1 10 5 12 7 ENE 1022,9 50 0,0
21.04.2018 07:00:00 8,8 5,9 6,9 13,5 9,1 6 3 17 9 NNE 1023,1 59 0,0
21.04.2018 06:00:00 8,4 6,2 7,1 13,8 9,1 9 5 15 8 NE 1022,9 54 0,0
21.04.2018 05:00:00 9,4 6,7 7,9 14,2 9,1 10 5 17 9 NE 1022,8 58 0,0
21.04.2018 04:00:00 10,2 6,7 8,1 14,5 9,1 9 5 14 8 NE 1022,7 59 0,0
21.04.2018 03:00:00 10,3 7,2 8,4 14,8 9,0 7 4 14 8 NE 1022,7 60 0,0
21.04.2018 02:00:00 12,1 6,8 10,2 15,2 9,0 9 5 20 11 NNE 1022,3 60 0,0
21.04.2018 01:00:00 12,9 7,3 10,6 15,5 9,0 15 8 21 12 NE 1021,8 60 0,0
21.04.2018 00:00:00 13,7 7,5 11,8 15,9 9,0 14 7 19 10 NE 1021,7 56 0,0
20.04.2018 23:00:00 15,0 8,2 12,4 16,3 9,0 12 7 18 10 NE 1021,2 60 0,0
20.04.2018 22:00:00 18,9 6,7 13,5 16,6 9,0 8 4 16 9 E 1020,3 60 0,0
20.04.2018 21:00:00 21,2 7,1 15,3 16,8 9,0 6 3 12 7 NW 1019,5 51 0,0
20.04.2018 20:00:00 23,9 7,9 22,2 17,0 9,0 9 5 23 12 NW 1018,4 18 0,0
20.04.2018 19:00:00 25,9 7,9 27,2 17,0 9,0 12 7 20 11 N 1018,2 52 0,0
20.04.2018 18:00:00 26,6 7,1 29,5 17,0 8,9 13 7 23 12 N 1018,4 38 0,0
20.04.2018 17:00:00 26,5 7,0 29,7 16,9 8,9 16 9 29 16 NNW 1018,7 60 0,0
20.04.2018 16:00:00 26,8 6,8 30,7 16,4 8,9 9 5 20 11 NNW 1019,3 60 0,0
20.04.2018 15:00:00 26,3 10,4 29,5 15,7 8,9 8 4 23 13 W 1020,1 43 0,0
20.04.2018 14:00:00 25,2 10,6 29,4 14,8 8,9 9 5 21 11 WSW 1020,8 41 0,0
20.04.2018 13:00:00 24,1 10,0 29,2 13,9 8,9 7 4 18 10 SSW 1021,6 49 0,0
20.04.2018 12:00:00 22,8 6,9 28,7 13,2 8,9 3 2 8 4 S 1022,4 18 0,0
20.04.2018 11:00:00 20,4 6,0 25,6 12,7 8,9 3 2 8 5 S 1023,4 20 0,0
20.04.2018 10:00:00 18,2 5,7 19,4 12,4 8,8 3 1 11 6 NE 1024,0 44 0,0
20.04.2018 09:00:00 14,3 6,4 14,5 12,5 8,8 9 5 13 7 ENE 1025,0 60 0,0
20.04.2018 08:00:00 11,1 6,6 6,4 12,7 8,8 5 3 10 5 E 1025,8 47 0,0
20.04.2018 07:00:00 7,7 5,7 5,7 13,0 8,8 10 5 16 8 ENE 1026,4 58 0,0
20.04.2018 06:00:00 8,0 6,0 6,3 13,3 8,8 13 7 16 9 NE 1026,0 46 0,0
20.04.2018 05:00:00 8,8 5,7 6,7 13,6 8,8 8 5 14 8 ENE 1025,7 57 0,0
20.04.2018 04:00:00 9,5 6,4 7,4 13,9 8,8 10 6 16 9 ENE 1025,6 60 0,0
20.04.2018 03:00:00 10,5 6,8 9,0 14,2 8,8 14 7 19 10 NE 1025,4 55 0,0
20.04.2018 02:00:00 10,8 7,5 9,6 14,6 8,8 16 9 21 11 NE 1025,6 50 0,0
20.04.2018 01:00:00 12,5 7,2 10,9 14,9 8,8 11 6 22 12 NE 1025,1 43 0,0
20.04.2018 00:00:00 13,5 7,9 11,9 15,3 8,7 11 6 20 11 NNE 1024,7 60 0,0
19.04.2018 23:00:00 14,5 8,0 12,4 15,6 8,7 16 9 19 10 ENE 1024,4 60 0,0
19.04.2018 22:00:00 17,2 8,1 13,6 15,9 8,7 11 6 16 9 NE 1023,8 59 0,0
19.04.2018 21:00:00 20,0 7,4 16,7 16,2 8,7 11 6 18 10 NNE 1022,5 60 0,0
19.04.2018 20:00:00 23,2 6,9 21,5 16,3 8,7 9 5 18 10 N 1021,8 60 0,0
19.04.2018 19:00:00 24,9 6,6 27,2 16,4 8,7 12 6 20 11 NNE 1021,5 60 0,0
19.04.2018 18:00:00 25,5 6,2 29,0 16,4 8,7 12 7 25 13 NNE 1021,8 58 0,0
19.04.2018 17:00:00 25,4 6,6 29,4 16,3 8,7 14 7 28 15 NNE 1021,9 57 0,0
19.04.2018 16:00:00 25,6 6,2 29,3 16,0 8,7 17 9 28 15 N 1022,4 60 0,0
19.04.2018 15:00:00 25,3 6,5 28,4 15,3 8,6 12 7 32 17 N 1023,2 51 0,0
19.04.2018 14:00:00 24,4 9,5 28,2 14,4 8,7 12 7 23 12 WNW 1024,0 49 0,0
19.04.2018 13:00:00 22,9 10,7 27,7 13,6 8,7 6 4 16 9 SW 1025,0 19 0,0
19.04.2018 12:00:00 21,6 8,5 26,8 12,8 8,6 3 1 7 4 E 1026,1 18 0,0
19.04.2018 11:00:00 19,2 6,0 23,3 12,3 8,6 3 2 9 5 SW 1027,1 20 0,0
19.04.2018 10:00:00 16,4 6,2 19,5 12,1 8,6 3 1 10 5 WSW 1027,7 18 0,0
19.04.2018 09:00:00 13,8 6,2 14,3 12,2 8,6 4 2 10 5 NE 1028,3 40 0,0
19.04.2018 08:00:00 10,3 7,0 6,4 12,4 8,6 5 3 13 7 NE 1029,0 19 0,0
19.04.2018 07:00:00 7,3 5,9 6,0 12,7 8,6 13 7 17 9 ENE 1029,0 31 0,0
19.04.2018 06:00:00 7,7 5,8 6,0 13,0 8,6 11 6 17 9 ENE 1028,8 52 0,0
19.04.2018 05:00:00 8,7 6,7 6,5 13,4 8,6 6 3 18 10 NNE 1028,7 57 0,0
19.04.2018 04:00:00 9,6 7,0 8,1 13,7 8,6 16 8 19 10 NE 1028,3 49 0,0
19.04.2018 03:00:00 10,1 7,3 8,5 14,1 8,6 13 7 18 10 ENE 1028,2 58 0,0
19.04.2018 02:00:00 10,4 8,0 9,2 14,4 8,5 13 7 17 9 ENE 1028,1 41 0,0
19.04.2018 01:00:00 11,9 8,2 10,4 14,8 8,5 11 6 18 10 NE 1027,7 59 0,0
19.04.2018 00:00:00 12,7 8,6 10,9 15,1 8,5 13 7 16 9 ENE 1027,4 60 0,0
18.04.2018 23:00:00 14,4 8,6 11,9 15,4 8,5 8 4 16 9 NE 1026,6 60 0,0
18.04.2018 22:00:00 17,4 8,3 13,2 15,8 8,5 8 4 13 7 N 1025,6 60 0,0
18.04.2018 21:00:00 18,8 8,4 15,6 16,1 8,5 8 4 20 11 NNW 1024,6 60 0,0
18.04.2018 20:00:00 21,7 7,9 20,2 16,3 8,5 9 5 18 10 NW 1023,8 60 0,0
18.04.2018 19:00:00 23,7 7,7 26,5 16,3 8,5 10 5 19 10 N 1023,4 58 0,0
18.04.2018 18:00:00 24,2 8,2 27,8 16,3 8,5 12 6 20 11 N 1023,5 48 0,0
18.04.2018 17:00:00 24,3 7,0 28,0 16,0 8,5 11 6 21 11 W 1023,8 51 0,0
18.04.2018 16:00:00 24,0 8,4 28,0 15,5 8,5 7 4 25 14 NNW 1024,3 57 0,0
18.04.2018 15:00:00 23,2 8,1 27,3 14,8 8,5 9 5 24 13 WNW 1024,9 41 0,0
18.04.2018 14:00:00 22,4 10,2 26,8 13,9 8,5 9 5 18 10 W 1025,4 59 0,0
18.04.2018 13:00:00 21,0 9,3 26,5 13,0 8,5 7 4 16 9 W 1026,2 17 0,0
18.04.2018 12:00:00 20,3 8,6 25,3 12,3 8,4 3 2 9 5 SSE 1026,8 60 0,0
18.04.2018 11:00:00 18,5 9,3 22,6 11,8 8,4 3 2 8 4 ESE 1027,2 19 0,0
18.04.2018 10:00:00 16,5 8,9 19,5 11,5 8,4 2 1 6 3 E 1027,7 47 0,0
18.04.2018 09:00:00 13,6 8,6 14,1 11,5 8,4 0 0 8 4 N 1028,0 45 0,0
18.04.2018 08:00:00 10,0 7,9 6,4 11,7 8,4 5 3 10 5 NE 1028,6 39 0,2
18.04.2018 07:00:00 7,4 6,3 5,7 12,0 8,4 8 5 13 7 ENE 1028,5 26 0,0
18.04.2018 06:00:00 8,4 7,2 6,1 12,3 8,4 5 3 10 5 NNE 1027,9 44 0,0
18.04.2018 05:00:00 8,4 7,2 6,7 12,6 8,4 8 4 16 8 N 1028,0 46 0,0
18.04.2018 04:00:00 8,7 7,3 7,0 12,9 8,4 7 4 10 5 NE 1027,7 38 0,0
18.04.2018 03:00:00 9,8 7,7 7,6 13,2 8,4 6 3 14 8 NNE 1027,3 57 0,0
18.04.2018 02:00:00 10,3 8,1 8,6 13,5 8,4 11 6 16 9 NE 1027,1 44 0,0
18.04.2018 01:00:00 11,3 8,2 9,1 13,8 8,3 7 4 15 8 NNE 1026,5 60 0,0
18.04.2018 00:00:00 13,4 8,2 10,1 14,1 8,3 6 4 12 7 NE 1025,8 60 0,0
17.04.2018 23:00:00 14,6 8,1 11,1 14,4 8,3 11 6 15 8 NNE 1025,3 60 0,0
17.04.2018 22:00:00 15,9 7,9 12,7 14,7 8,3 6 4 18 10 N 1024,8 60 0,0
17.04.2018 21:00:00 17,8 8,6 15,7 15,0 8,3 13 7 30 16 NNE 1023,8 60 0,0
17.04.2018 20:00:00 19,5 9,1 19,3 15,2 8,3 16 8 26 14 NNE 1022,6 59 0,0
17.04.2018 19:00:00 21,0 8,9 22,2 15,2 8,3 11 6 23 12 NNE 1021,8 58 0,0
17.04.2018 18:00:00 21,9 8,7 24,7 15,2 8,3 10 6 25 13 N 1021,4 59 0,0
17.04.2018 17:00:00 21,7 8,6 25,2 15,1 8,3 16 9 29 16 NNW 1021,3 38 0,0
17.04.2018 16:00:00 21,4 8,3 25,0 14,5 8,2 16 8 27 15 NW 1021,4 60 0,0
17.04.2018 15:00:00 21,2 7,4 25,0 13,7 8,2 14 8 27 15 NW 1021,7 39 0,0
17.04.2018 14:00:00 20,4 9,3 24,2 12,8 8,2 5 3 24 13 ESE 1022,1 50 0,0
17.04.2018 13:00:00 19,0 9,7 24,2 11,8 8,2 9 5 19 10 W 1022,7 22 0,0
17.04.2018 12:00:00 18,1 9,2 24,0 11,0 8,2 3 2 11 6 SSW 1023,1 49 0,0
17.04.2018 11:00:00 16,2 8,4 20,8 10,6 8,2 2 1 9 5 SSW 1023,5 45 0,0
17.04.2018 10:00:00 13,5 7,9 17,0 10,2 8,2 2 1 7 4 S 1023,9 53 0,0
17.04.2018 09:00:00 12,1 7,2 11,3 10,3 8,2 2 1 9 5 N 1024,1 46 0,0
17.04.2018 08:00:00 7,9 6,8 4,1 10,5 8,2 6 3 13 7 NE 1024,1 36 0,0
17.04.2018 07:00:00 6,3 6,0 4,2 10,7 8,2 5 3 13 7 NE 1023,6 49 0,0
17.04.2018 06:00:00 6,4 5,8 4,5 11,0 8,2 8 4 13 7 NE 1022,7 45 0,0
17.04.2018 05:00:00 6,7 6,1 4,6 11,3 8,2 10 6 13 7 ENE 1022,3 41 0,0
17.04.2018 04:00:00 7,0 6,1 5,1 11,5 8,1 8 5 10 6 NE 1022,1 40 0,0

tt = Température de l'air
td = dewpoint
tt 5cm = Température de l'air 5cm
tt -20cm = Température de l'air -20cm
tt -100cm = Température de l'air -100cm
ff = Vitesse du vent
fx = gusts
dd = Direction du vent
ppp = reduced air pressure
vv = visibility
rr = Quantités de précipitations

stations d'obs. à proximité